Weather Roundup
Issued by NWS Chicago, IL

Home | Current Version | Previous Version | Text Only | Print | Product List | Glossary On
Versions: 1 2 3 4 5 6 7 8 9 10 11 12 13 14 15 16 17 18 19 20 21 22 23 24 25 26 27 28 29 30 31 32 33 34 35 36 37 38 39 40 41 42 43 44 45 46 47 48 49 50
000
NZUS59 KLOT 230910
HRRLOT

CHICAGO AREA WEATHER ROUNDUP
NATIONAL WEATHER SERVICE CHICAGO/ROMEOVILLE IL
400 AM CDT THU OCT 23 2014

NOTE: "FAIR" INDICATES FEW OR NO CLOUDS BELOW 12,000 FEET WITH NO
SIGNIFICANT WEATHER AND/OR OBSTRUCTIONS TO VISIBILITY.

* THESE STATIONS ARE NOT UNDER NWS QUALITY CONTROL. THEY ALSO MAY NOT
  REPORT WEATHER SUCH AS PRECIPITATION OR FOG.

ILZ005-006-012>014-019>023-231000-
NORTHEAST ILLINOIS

CITY           SKY/WX    TMP DP  RH WIND       PRES   REMARKS
OHARE          CLEAR     37  35  92 S6        30.22F
MIDWAY         CLEAR     43  38  82 S7        30.23F
AURORA         CLEAR     37  33  85 SE3       30.22F FOG
LANSING*       CLEAR     37  36  97 SE5       30.24S FOG
JOLIET*        CLEAR     36  35  95 CALM      30.22F FOG
WAUKEGAN       CLEAR     39  36  89 S6        30.22F
DUPAGE AIRPORT CLEAR     36  34  92 S5        30.21F
WHEELING       CLEAR     37  33  85 CALM      30.24F
KANKAKEE*      CLEAR     35  34  95 E5        30.24F WCI  31
MORRIS*        CLEAR     34  34 100 CALM      30.21F FOG
LEWIS AIRPORT* CLEAR     37  37  99 SE6       30.23S FOG
NORTHERLY IS     N/A     43  38  82 S5          N/A
$$

WIZ051-052-058>065-066-070>072-231000-
SOUTHEAST WISCONSIN

CITY           SKY/WX    TMP DP  RH WIND       PRES   REMARKS
MILWAUKEE      PTCLDY    35  31  85 CALM      30.21F
KENOSHA*       CLEAR     36  34  92 S7        30.22F
RACINE*        CLEAR     34  32  92 S5        30.23F WCI  30
BURLINGTON     FOG       26  26 100 CALM      30.21F VSB 3/4
WAUKESHA       CLEAR     32  32 100 CALM      30.21F
WEST BEND      CLEAR     32  30  93 S3        30.20F
$$

INZ001>003-010>013-019-020-231000-
NORTHWEST INDIANA

CITY           SKY/WX    TMP DP  RH WIND       PRES   REMARKS
GARY*          CLEAR     40  39  93 SE5       30.25S FOG
MICHIGAN CITY* NOT AVBL
RENSSELAER*    NOT AVBL
VALPARAISO     FOG       32  31  96 NE3       30.25F VSB 1/4
$$

LMZ740>746-231000-
SOUTHERN LAKE MICHIGAN

STATION/POSITION TIME  SKY/WX   TEMP WIND        PRES    VSBY
                                AIR  DIR/SP/G
                 (UTC)          (F)  (DEG/KT/KT) (MB)    (MI)
HARRISON CRIB    0800            47  180/ 13/ 16   N/A
BURNHAM HARBOR   0900            43  160/  4/  7   N/A
CALUMET HARBOR   0900            42  170/  6/  9 1022.6F
BURNS HARBOR     NOT AVBL
MICHIGAN CITY    0900            41  140/ 11/ 13   N/A
$$

ABBREVIATIONS USED IN REMARKS
   TC - TEMPERATURE IN CELSIUS
  WCI - WIND CHILL INDEX
   HX - HEAT INDEX
  VSB - VISIBILITY
$$



USA.gov is the U.S. government's official web portal to all federal, state and local government web resources and services.